W1LH-13 Weather Reports


Display with metric or nautical units.
time (UTC)temp
F
wind
direction
speed
MPH
gust
MPH
rain 1hr
in
rain 24hr
in
rain mn
in
humidity
%
barometer
mb
20260507163838 60 315 5.0 11.0 0.00 0.27 0.20 58 1002.0
20260507163323 60 114 2.0 11.0 0.00 0.27 0.20 60 1002.0
20260507162847 60 270 2.0 10.0 0.00 0.27 0.20 62 1002.1
20260507162331 59 304 5.0 12.0 0.00 0.27 0.20 60 1002.2
20260507161835 60 294 6.0 13.0 0.00 0.27 0.20 60 1002.3
20260507161401 59 213 3.0 13.0 0.00 0.27 0.20 61 1002.4
20260507160824 59 296 6.0 10.0 0.00 0.27 0.20 63 1002.5
20260507160328 59 313 5.0 15.0 0.00 0.27 0.20 66 1002.6
20260507155852 59 340 8.0 15.0 0.00 0.27 0.20 65 1002.6
20260507155337 58 258 4.0 11.0 0.00 0.27 0.20 67 1002.6
20260507154821 58 298 6.0 11.0 0.00 0.27 0.20 68 1002.7
20260507154346 59 294 3.0 8.0 0.00 0.27 0.20 69 1002.6
20260507153834 58 182 2.0 12.0 0.00 0.27 0.20 71 1002.5
20260507153339 58 305 6.0 12.0 0.00 0.27 0.20 69 1002.7
20260507152823 58 277 3.0 9.0 0.00 0.27 0.20 71 1002.8
20260507152326 58 286 3.0 12.0 0.00 0.27 0.20 73 1002.7
20260507151852 57 319 7.0 12.0 0.00 0.27 0.20 71 1002.8
20260507151334 56 36 5.0 11.0 0.00 0.27 0.20 72 1002.9
20260507150859 56 355 6.0 11.0 0.00 0.27 0.20 73 1002.9
20260507150323 56 300 6.0 12.0 0.00 0.27 0.20 73 1003.0
20260507145828 56 291 3.0 14.0 0.00 0.27 0.20 73 1003.1
20260507145332 56 259 7.0 10.0 0.00 0.27 0.20 74 1003.2
20260507144836 56 168 3.0 10.0 0.00 0.27 0.20 77 1003.4
20260507144321 55 325 6.0 12.0 0.00 0.27 0.20 75 1003.4
20260507143830 55 298 7.0 11.0 0.00 0.27 0.20 74 1003.1
20260507143334 55 284 5.0 12.0 0.00 0.27 0.20 76 1003.2
20260507142839 55 309 6.0 12.0 0.00 0.27 0.20 79 1003.4
20260507142322 54 311 7.0 11.0 0.00 0.27 0.20 79 1003.5
20260507141826 54 149 3.0 16.0 0.00 0.27 0.20 81 1003.6
20260507141331 54 292 7.0 16.0 0.00 0.27 0.20 81 1003.8
20260507140836 54 267 5.0 10.0 0.00 0.27 0.20 83 1003.8
20260507140320 53 277 5.0 10.0 0.00 0.27 0.20 83 1003.8
20260507135824 54 278 4.0 13.0 0.00 0.27 0.20 85 1003.7
20260507135329 53 280 7.0 13.0 0.00 0.27 0.20 85 1003.6
20260507134833 52 291 6.0 9.0 0.00 0.27 0.20 87 1003.6
20260507134322 51 309 4.0 8.0 0.00 0.27 0.20 87 1003.6
20260507133846 51 278 5.0 8.0 0.00 0.27 0.20 87 1003.7
20260507133329 51 335 2.0 8.0 0.00 0.27 0.20 88 1003.7
20260507132835 51 282 5.0 9.0 0.00 0.27 0.20 88 1003.9
20260507132359 51 292 4.0 9.0 0.00 0.27 0.20 89 1003.8
20260507131823 51 298 3.0 8.0 0.00 0.27 0.20 90 1003.7
20260507131348 51 319 5.0 8.0 0.00 0.27 0.20 89 1003.9
20260507130832 50 279 5.0 9.0 0.00 0.27 0.20 90 1003.8
20260507130336 50 259 6.0 9.0 0.00 0.27 0.20 90 1003.6
20260507125821 50 297 4.0 8.0 0.00 0.27 0.20 90 1003.3
20260507125325 49 266 3.0 9.0 0.00 0.27 0.20 91 1003.2
20260507124831 49 295 5.0 9.0 0.00 0.27 0.20 91 1003.4
20260507124319 49 256 327.0 327.0 0.00 0.00 0.20 91 1003.9
20260507123825 49 277 6.0 10.0 0.00 0.27 0.20 91 1003.9
20260507123330 49 292 6.0 10.0 0.00 0.27 0.20 91 1004.1
20260507122835 50 253 4.0 8.0 0.00 0.27 0.20 92 1003.8
20260507122338 50 298 4.0 7.0 0.00 0.27 0.20 92 1004.1
20260507121823 50 283 4.0 7.0 0.00 0.27 0.20 92 1004.5
20260507121327 50 292 3.0 7.0 0.00 0.27 0.20 92 1004.5
20260507120832 50 273 3.0 9.0 0.00 0.27 0.20 92 1004.0
20260507120337 49 288 4.0 10.0 0.00 0.27 0.20 92 1004.2
20260507115821 50 273 6.0 10.0 0.00 0.27 0.20 92 1004.4
20260507115325 50 266 3.0 9.0 0.00 0.27 0.20 93 1004.4
20260507114834 50 272 3.0 10.0 0.00 0.27 0.20 92 1004.0
20260507114338 50 277 5.0 10.0 0.00 0.27 0.20 93 1004.1
20260507113822 50 306 5.0 8.0 0.00 0.27 0.20 93 1004.0
20260507112822 50 326 4.0 10.0 0.00 0.27 0.20 93 1003.6
20260507112347 50 298 5.0 10.0 0.00 0.27 0.20 93 1003.5
20260507111851 50 243 6.0 10.0 0.00 0.27 0.20 93 1003.4
20260507111338 50 230 2.0 8.0 0.00 0.27 0.20 94 1003.4
20260507110820 50 275 4.0 8.0 0.00 0.27 0.20 94 1003.6
20260507110324 50 298 3.0 9.0 0.00 0.27 0.20 93 1003.3
20260507105828 50 245 5.0 9.0 0.00 0.27 0.20 93 1003.3
20260507105332 50 306 2.0 6.0 0.00 0.27 0.20 93 1003.2
20260507104822 50 252 2.0 7.0 0.00 0.27 0.20 94 1003.4
20260507104327 50 280 3.0 4.0 0.00 0.27 0.20 94 1003.3
20260507103832 50 308 2.0 5.0 0.00 0.27 0.20 93 1003.3
20260507103336 50 274 4.0 8.0 0.00 0.27 0.20 93 1003.5
20260507102839 50 260 3.0 6.0 0.00 0.27 0.20 93 1003.5
20260507102324 50 288 3.0 8.0 0.00 0.27 0.20 94 1003.3
20260507101828 50 274 4.0 8.0 0.00 0.27 0.20 94 1003.3
20260507101330 50 263 4.0 8.0 0.00 0.27 0.20 94 1003.6
20260507100833 50 267 6.0 9.0 0.00 0.27 0.20 94 1003.6
20260507100338 50 275 4.0 9.0 0.00 0.27 0.20 93 1003.4
20260507095826 50 281 5.0 9.0 0.00 0.27 0.20 93 1003.3
20260507095330 50 300 6.0 9.0 0.00 0.27 0.20 93 1003.3
20260507094835 50 264 7.0 9.0 0.00 0.27 0.20 93 1002.9
20260507094339 50 252 5.0 8.0 0.00 0.27 0.20 93 1002.4
20260507093824 50 288 3.0 5.0 0.00 0.27 0.20 94 1002.2
20260507093328 50 222 3.0 8.0 0.00 0.27 0.20 94 1002.3
20260507092853 50 279 4.0 8.0 0.00 0.27 0.20 94 1002.6
20260507092338 50 277 3.0 9.0 0.01 0.27 0.20 94 1002.5
20260507091823 50 293 5.0 10.0 0.01 0.27 0.20 94 1002.6
20260507091348 50 282 6.0 10.0 0.02 0.27 0.20 94 1002.7
20260507090851 50 284 5.0 8.0 0.02 0.27 0.20 94 1002.9
20260507090354 51 315 6.0 8.0 0.02 0.27 0.20 94 1002.8
20260507085858 51 282 5.0 9.0 0.02 0.27 0.20 94 1002.6
20260507085321 51 265 5.0 9.0 0.02 0.27 0.20 94 1002.5
20260507084827 51 282 4.0 9.0 0.02 0.27 0.20 94 1002.4
20260507084335 51 275 5.0 9.0 0.02 0.27 0.20 94 1002.4
20260507083900 51 269 5.0 12.0 0.02 0.27 0.20 94 1002.2
20260507083323 51 296 7.0 12.0 0.02 0.27 0.20 94 1002.4
20260507082828 51 295 8.0 12.0 0.03 0.27 0.20 94 1002.4
20260507082333 51 267 4.0 7.0 0.04 0.26 0.19 94 1002.2
20260507081856 51 278 4.0 8.0 0.05 0.25 0.19 94 1002.2
20260507081319 51 274 4.0 9.0 0.07 0.25 0.18 94 1002.2
20260507080823 51 267 327.0 327.0 0.00 0.00 0.18 94 1001.9
20260507080329 51 274 2.0 5.0 0.10 0.25 0.18 93 1001.8
20260507075835 51 269 2.0 4.0 0.11 0.25 0.18 93 1001.7
20260507075340 51 279 2.0 4.0 0.11 0.25 0.18 93 1001.6
20260507074824 51 260 0.0 3.0 0.11 0.25 0.18 93 1001.6
20260507074334 51 287 1.0 3.0 0.11 0.25 0.18 93 1001.4
20260507073837 51 248 0.0 3.0 0.11 0.25 0.18 93 1001.6
20260507073321 51 248 1.0 5.0 0.11 0.25 0.18 93 1001.6
20260507072825 52 32 1.0 12.0 0.11 0.24 0.17 93 1001.4
20260507072328 52 271 6.0 12.0 0.09 0.22 0.15 93 1002.5
20260507071833 52 252 5.0 14.0 0.07 0.20 0.13 93 1002.1
20260507071338 52 263 7.0 14.0 0.05 0.18 0.11 93 1002.2
20260507070823 52 277 6.0 10.0 0.04 0.16 0.09 93 1002.3
20260507070328 52 263 4.0 10.0 0.03 0.15 0.08 93 1002.2
20260507065832 52 259 3.0 10.0 0.02 0.16 0.07 93 1002.1
20260507065322 52 217 3.0 9.0 0.02 0.16 0.07 93 1002.1
20260507064826 52 240 4.0 10.0 0.02 0.16 0.07 93 1001.9
20260507064331 52 282 4.0 10.0 0.02 0.16 0.07 93 1001.9
20260507063835 52 282 5.0 10.0 0.02 0.16 0.07 93 1001.8
20260507063339 52 286 4.0 11.0 0.03 0.16 0.07 93 1001.8
20260507062824 52 290 5.0 11.0 0.02 0.15 0.06 93 1001.8
20260507062329 52 213 4.0 10.0 0.02 0.15 0.06 93 1001.9
20260507061832 52 260 6.0 10.0 0.02 0.15 0.06 93 1002.0
20260507061337 52 330 5.0 12.0 0.02 0.15 0.06 93 1002.0
20260507060821 52 265 4.0 12.0 0.01 0.14 0.05 93 1002.0
20260507060326 52 217 6.0 12.0 0.01 0.14 0.05 93 1002.1
20260507055834 52 254 6.0 12.0 0.01 0.14 0.05 92 1002.1
20260507055337 52 246 7.0 11.0 0.01 0.14 0.05 93 1002.1
20260507054822 52 225 5.0 11.0 0.01 0.14 0.05 92 1002.2
20260507054327 52 205 6.0 12.0 0.01 0.14 0.05 92 1002.1
20260507053851 53 224 4.0 12.0 0.01 0.14 0.05 92 1002.1
20260507053332 53 257 4.0 9.0 0.00 0.13 0.04 92 1002.2
20260507052835 53 311 4.0 10.0 0.00 0.13 0.04 92 1002.4
20260507052339 53 219 4.0 11.0 0.01 0.13 0.04 92 1002.3
20260507051824 53 188 3.0 15.0 0.02 0.13 0.04 92 1002.5
20260507051329 53 248 3.0 8.0 0.03 0.13 0.04 92 1002.6
20260507050834 53 296 3.0 9.0 0.03 0.13 0.04 92 1002.7
20260507050323 53 234 4.0 11.0 0.04 0.13 0.04 92 1002.8
20260507045827 54 252 4.0 15.0 0.04 0.13 0.04 92 1002.9
20260507045333 54 271 4.0 13.0 0.05 0.13 0.04 92 1003.1
20260507044836 54 270 6.0 13.0 0.05 0.13 0.04 92 1003.0
20260507044342 54 210 6.0 11.0 0.05 0.13 0.04 92 1003.1
20260507043824 54 324 5.0 10.0 0.05 0.13 0.04 92 1003.2
20260507043329 54 49 3.0 9.0 0.06 0.13 0.04 92 1003.2
20260507042853 55 169 5.0 9.0 0.06 0.13 0.04 92 1003.4
20260507042335 55 209 4.0 9.0 0.06 0.12 0.03 92 1003.6
20260507041820 55 301 2.0 8.0 0.05 0.11 0.02 92 1003.6
20260507041324 55 312 3.0 9.0 0.04 0.10 0.01 92 1003.5
20260507040829 55 157 4.0 9.0 0.04 0.10 0.01 92 1003.7
20260507040333 55 334 4.0 8.0 0.04 0.09 0.00 92 1003.7
20260507035823 55 36 2.0 8.0 0.04 0.09 0.09 92 1003.8
20260507035348 55 27 2.0 8.0 0.04 0.08 0.08 92 1003.9
20260507034832 55 192 3.0 11.0 0.04 0.08 0.08 92 1003.9
20260507034337 55 312 5.0 11.0 0.04 0.08 0.08 91 1004.0
20260507033822 55 240 4.0 12.0 0.05 0.08 0.08 92 1004.0
20260507033326 55 215 4.0 12.0 0.04 0.07 0.07 91 1004.2
20260507032830 55 118 2.0 8.0 0.04 0.07 0.07 91 1004.4
20260507032335 55 138 3.0 8.0 0.03 0.06 0.06 91 1004.5
20260507031820 55 229 3.0 8.0 0.03 0.06 0.06 91 1004.4
20260507031344 55 5 3.0 9.0 0.04 0.06 0.06 91 1004.5
20260507030829 55 148 3.0 9.0 0.04 0.06 0.06 91 1004.7
20260507030333 55 170 2.0 7.0 0.03 0.05 0.05 91 1004.9
20260507025841 55 178 2.0 10.0 0.03 0.05 0.05 91 1004.8
20260507025325 55 156 2.0 10.0 0.02 0.04 0.04 91 1005.1
20260507024828 55 220 3.0 7.0 0.02 0.04 0.04 90 1005.3
20260507024334 55 62 1.0 8.0 0.02 0.04 0.04 90 1005.4
20260507023857 56 77 1.0 6.0 0.01 0.03 0.03 90 1005.5
20260507023320 55 81 2.0 6.0 0.01 0.03 0.03 90 1005.5
20260507022824 55 219 3.0 6.0 0.01 0.03 0.03 90 1005.8
20260507022330 55 271 3.0 7.0 0.01 0.03 0.03 89 1006.1
20260507021834 55 147 2.0 8.0 0.01 0.03 0.03 89 1006.0
20260507021338 55 236 4.0 9.0 0.00 0.02 0.02 89 1006.1
20260507020823 55 240 2.0 11.0 0.00 0.02 0.02 89 1006.2
20260507020329 55 160 4.0 12.0 0.00 0.02 0.02 88 1006.4
20260507015836 55 215 4.0 12.0 0.00 0.02 0.02 88 1006.5
20260507015321 55 216 4.0 11.0 0.00 0.02 0.02 88 1006.6
20260507014826 55 215 3.0 11.0 0.00 0.02 0.02 87 1006.7
20260507014330 55 290 3.0 10.0 0.00 0.02 0.02 87 1006.6
20260507013833 55 336 2.0 11.0 0.00 0.02 0.02 87 1006.8
20260507013338 55 156 4.0 11.0 0.00 0.02 0.02 87 1006.9
20260507012823 55 213 1.0 15.0 0.00 0.02 0.02 87 1006.9
20260507012329 55 265 4.0 15.0 0.00 0.02 0.02 87 1007.2
20260507011834 55 120 4.0 9.0 0.00 0.02 0.02 87 1007.3
20260507011338 55 118 4.0 8.0 0.00 0.02 0.02 87 1007.3
20260507010827 55 296 2.0 9.0 0.00 0.02 0.02 87 1007.4
20260507010350 55 311 4.0 9.0 0.00 0.02 0.02 87 1007.5
20260507005854 55 110 5.0 10.0 0.00 0.02 0.02 87 1007.7
20260507005338 55 210 3.0 10.0 0.00 0.02 0.02 87 1007.5
20260507004822 55 69 3.0 11.0 0.00 0.02 0.02 87 1007.6
20260507004327 55 130 4.0 11.0 0.00 0.02 0.02 87 1007.9
20260507003831 55 138 3.0 10.0 0.00 0.02 0.02 87 1008.1
20260507003335 55 325 5.0 10.0 0.00 0.02 0.02 87 1008.0
20260507002820 55 217 2.0 16.0 0.00 0.02 0.02 87 1008.0
20260507002324 55 121 5.0 16.0 0.00 0.02 0.02 87 1007.6
20260507001828 55 79 327.0 327.0 0.00 0.00 0.02 87 1008.1
20260507001354 55 223 2.0 7.0 0.00 0.02 0.02 86 1007.7
20260507000836 55 98 2.0 7.0 0.00 0.02 0.02 87 1007.5
20260507000325 55 151 2.0 7.0 0.00 0.02 0.02 86 1007.7
20260506235828 55 215 3.0 7.0 0.00 0.02 0.02 86 1008.0
20260506235333 56 288 3.0 13.0 0.00 0.02 0.02 86 1008.5
20260506234857 56 186 3.0 6.0 0.00 0.02 0.02 86 1008.7
20260506234320 56 206 2.0 7.0 0.00 0.02 0.02 86 1008.8
20260506233825 56 111 2.0 10.0 0.00 0.02 0.02 86 1008.7
20260506233330 56 125 2.0 10.0 0.00 0.02 0.02 86 1008.3
20260506232835 56 137 2.0 5.0 0.00 0.02 0.02 86 1008.6
20260506232400 56 241 2.0 8.0 0.00 0.02 0.02 86 1008.8
20260506231844 57 160 327.0 327.0 0.00 0.00 0.02 86 1008.6
20260506231328 57 74 1.0 8.0 0.00 0.02 0.02 85 1008.6
20260506230832 57 229 2.0 9.0 0.00 0.02 0.02 85 1008.8
20260506230336 57 205 4.0 9.0 0.00 0.02 0.02 85 1008.8
20260506225841 57 186 3.0 7.0 0.00 0.02 0.02 85 1008.7
20260506225329 57 238 2.0 10.0 0.00 0.02 0.02 85 1008.7
20260506224834 57 193 4.0 10.0 0.00 0.02 0.02 85 1008.9
20260506224338 57 48 2.0 13.0 0.00 0.02 0.02 85 1008.7
20260506223822 57 238 5.0 14.0 0.00 0.02 0.02 85 1008.8
20260506223326 57 285 3.0 14.0 0.00 0.02 0.02 85 1008.8
20260506222831 57 267 2.0 9.0 0.00 0.02 0.02 85 1009.0
20260506222335 57 163 2.0 10.0 0.00 0.02 0.02 85 1008.7
20260506221859 57 284 4.0 14.0 0.00 0.02 0.02 85 1008.8
20260506221322 57 159 4.0 14.0 0.00 0.02 0.02 85 1008.9
20260506220847 57 187 3.0 14.0 0.00 0.02 0.02 85 1008.9
20260506220331 57 259 3.0 14.0 0.00 0.02 0.02 85 1009.0
20260506215835 57 119 2.0 7.0 0.00 0.02 0.02 85 1008.8
20260506215323 57 198 4.0 7.0 0.00 0.02 0.02 85 1009.1
20260506214827 57 237 2.0 11.0 0.00 0.02 0.02 85 1009.1
20260506214332 57 219 3.0 11.0 0.00 0.02 0.02 85 1009.3
20260506213836 57 239 2.0 8.0 0.00 0.02 0.02 85 1009.2
20260506213339 57 288 3.0 10.0 0.00 0.02 0.02 84 1009.4
20260506212823 57 178 1.0 9.0 0.00 0.02 0.02 84 1008.9
20260506212328 57 231 3.0 10.0 0.00 0.02 0.02 84 1008.8
20260506211833 57 69 2.0 10.0 0.00 0.02 0.02 83 1008.8
20260506211336 57 140 1.0 8.0 0.00 0.02 0.02 83 1009.0
20260506210841 57 153 3.0 6.0 0.00 0.02 0.02 83 1008.8
20260506210345 58 326 1.0 7.0 0.00 0.02 0.02 83 1008.6
20260506205828 58 80 2.0 7.0 0.00 0.02 0.02 83 1008.6
20260506205353 58 315 3.0 9.0 0.00 0.02 0.02 84 1008.8
20260506204836 58 310 1.0 19.0 0.00 0.02 0.02 83 1008.8
20260506204323 58 314 4.0 19.0 0.00 0.02 0.02 83 1008.7
20260506203827 58 231 3.0 13.0 0.00 0.02 0.02 83 1008.8
20260506203352 58 241 5.0 13.0 0.00 0.02 0.02 83 1008.9
20260506202856 58 206 5.0 13.0 0.00 0.02 0.02 83 1008.9
20260506202340 58 185 6.0 13.0 0.00 0.02 0.02 83 1008.8
20260506201824 58 309 5.0 16.0 0.00 0.02 0.02 83 1008.9
20260506201329 58 116 8.0 16.0 0.00 0.02 0.02 83 1009.0
20260506200834 58 248 5.0 13.0 0.00 0.02 0.02 83 1008.9
20260506200337 58 194 5.0 13.0 0.00 0.02 0.02 83 1009.0
20260506195841 58 206 4.0 11.0 0.00 0.02 0.02 83 1009.0
20260506195325 58 204 6.0 13.0 0.00 0.02 0.02 83 1008.9
20260506194829 58 239 6.0 13.0 0.00 0.02 0.02 83 1008.8
20260506194353 58 280 5.0 18.0 0.00 0.02 0.02 83 1009.0
20260506193820 58 236 6.0 12.0 0.00 0.02 0.02 83 1009.0
20260506193323 58 338 2.0 12.0 0.00 0.02 0.02 82 1009.0
20260506192829 58 261 4.0 8.0 0.00 0.02 0.02 82 1008.9
20260506192334 58 169 3.0 8.0 0.00 0.02 0.02 83 1009.0
20260506191837 58 85 2.0 8.0 0.00 0.02 0.02 83 1008.9
20260506191322 58 242 2.0 14.0 0.00 0.02 0.02 83 1009.0
20260506190825 58 188 6.0 15.0 0.00 0.02 0.02 83 1009.0
20260506190330 58 228 7.0 16.0 0.00 0.02 0.02 83 1009.0
20260506185855 58 317 6.0 16.0 0.00 0.02 0.02 83 1009.0
20260506185337 58 201 5.0 18.0 0.00 0.02 0.02 83 1009.0
20260506184821 58 227 5.0 12.0 0.00 0.02 0.02 83 1009.0
20260506184326 58 261 6.0 14.0 0.00 0.02 0.02 83 1009.0
20260506183834 58 147 6.0 15.0 0.00 0.02 0.02 82 1009.1
20260506183359 58 321 5.0 15.0 0.00 0.02 0.02 83 1009.1
20260506182823 58 321 3.0 14.0 0.00 0.02 0.02 83 1009.2
20260506182347 58 307 3.0 18.0 0.00 0.02 0.02 83 1009.2
20260506181831 58 220 5.0 17.0 0.00 0.02 0.02 82 1009.3
20260506181336 58 215 6.0 16.0 0.00 0.02 0.02 82 1009.3
20260506180839 58 282 6.0 16.0 0.00 0.02 0.02 82 1009.3
20260506180324 58 74 3.0 12.0 0.00 0.02 0.02 83 1009.3
20260506175829 58 284 3.0 12.0 0.00 0.02 0.02 82 1009.3
20260506175334 58 183 3.0 12.0 0.00 0.02 0.02 83 1009.4
20260506174838 58 248 5.0 14.0 0.00 0.02 0.02 83 1009.5
20260506174322 58 257 7.0 14.0 0.00 0.02 0.02 83 1009.5
20260506173830 58 167 2.0 13.0 0.00 0.02 0.02 83 1009.6
20260506173335 58 212 5.0 11.0 0.00 0.02 0.02 83 1009.8
20260506172840 58 57 4.0 11.0 0.00 0.02 0.02 83 1009.9
20260506172324 58 157 5.0 15.0 0.00 0.02 0.02 83 1009.9
20260506171827 58 271 5.0 15.0 0.00 0.02 0.02 83 1009.9
20260506171332 58 220 8.0 18.0 0.00 0.02 0.02 83 1009.8
20260506170837 58 306 7.0 18.0 0.00 0.02 0.02 83 1010.0
20260506170321 58 219 6.0 19.0 0.00 0.02 0.02 82 1010.1
20260506165846 58 223 8.0 16.0 0.00 0.02 0.02 82 1010.2
20260506165348 59 341 4.0 13.0 0.00 0.02 0.02 82 1010.2
20260506164852 59 284 4.0 13.0 0.00 0.02 0.02 82 1010.2
20260506164336 59 279 2.0 9.0 0.00 0.02 0.02 83 1010.1